Location: Seattle
(47.6064°N, 122.3308°W)
Time: 11:32:52
(UTC-07:00)

UWE-3 - Visible Passes

Search period start: 28 March 2023 00:00
Search period end: 07 April 2023 00:00
Orbit: 580 x 670 km, 97.7° (Epoch: 27 March)

Date Brightness Start Highest point End Pass type
(mag) Time Alt. Az. Time Alt. Az. Time Alt. Az.
28 Mar ? 03:03:51 10° NE 03:06:18 17° E 03:06:18 17° E visible
28 Mar ? 04:39:03 10° N 04:43:28 55° WNW 04:43:34 55° WNW visible
29 Mar ? 03:22:02 10° NE 03:25:22 25° E 03:25:22 25° E visible
29 Mar ? 04:57:59 10° N 05:02:07 36° WNW 05:02:38 35° W visible
30 Mar ? 03:40:28 10° NNE 03:44:25 38° E 03:44:25 38° E visible
30 Mar ? 05:17:03 10° N 05:20:43 25° WNW 05:21:41 23° W visible
31 Mar ? 03:59:03 10° NNE 04:03:28 60° E 04:03:28 60° E visible
31 Mar ? 05:36:18 10° NNW 05:39:15 18° WNW 05:40:44 15° W visible
01 Apr ? 02:44:24 10° ENE 02:45:14 11° E 02:45:14 11° E visible
01 Apr ? 04:17:45 10° NNE 04:22:14 88° WNW 04:22:30 79° SSW visible
01 Apr ? 05:55:57 10° NNW 05:57:43 12° WNW 05:59:27 10° W visible
02 Apr ? 03:01:30 10° NE 03:04:15 16° E 03:04:15 16° E visible
02 Apr ? 04:36:32 10° N 04:40:55 57° WNW 04:41:32 52° WSW visible
03 Apr ? 03:19:34 10° NE 03:23:11 24° E 03:23:17 24° E visible
03 Apr ? 04:55:26 10° N 04:59:32 38° WNW 05:00:33 33° W visible
04 Apr ? 03:37:55 10° NNE 03:42:01 36° E 03:42:17 36° ESE visible
04 Apr ? 05:14:26 10° N 05:18:05 26° WNW 05:19:33 21° W visible
05 Apr ? 03:56:26 10° NNE 04:00:47 57° E 04:01:17 53° SE visible
05 Apr ? 05:33:37 10° NNW 05:36:34 18° WNW 05:38:33 14° W visible
06 Apr ? 04:15:05 10° NNE 04:19:30 88° ESE 04:20:16 60° S visible
06 Apr ? 05:53:12 10° NNW 05:55:01 12° WNW 05:56:48 10° W visible
